Clarion, IA

4:51 AM CST on January 22, 2018 (GMT -0600)
Clarion Municipal

Weather History for KCAV - October, 2012

Change the Weather History Date:

Thursday, October 4, 2012

  Actual Average Record
Temperature  
Mean Temperature 46 °F -  
Max Temperature 60 °F 66 °F 89 °F (2005)
Min Temperature 33 °F 40 °F 23 °F (1968)
Degree Days  
Heating Degree Days 18    
Moisture  
Dew Point 33 °F    
Average Humidity 55    
Maximum Humidity 76    
Minimum Humidity 33    
Precipitation  
Precipitation 0.00 in - - ()
Sea Level Pressure  
Sea Level Pressure 30.10 in    
Wind  
Wind Speed 15 mph (West)    
Max Wind Speed 26 mph    
Max Gust Speed 36 mph    
Visibility 10 miles    
Events Rain    
Averages and records for this station are not official NWS values.
T = Trace of Precipitation, MM = Missing Value Source: NWS Daily Summary

Daily Weather History Graph

Daily Weather History Graph

Search for Another Location

Airport or City:

Trip Planner

Search our weather history database for the weather conditions in past years. The results will help you decide how hot, cold, wet, or windy it might be!

Date:

Astronomy

Oct. 04, 2012 Rise Set
Actual Time 7:16 AM CDT 6:50 PM CDT
Civil Twilight 6:47 AM CDT 7:18 PM CDT
Nautical Twilight 6:15 AM CDT 7:51 PM CDT
Astronomical Twilight 5:42 AM CDT 8:23 PM CDT
Moon 9:20 PM CDT (10/4) 11:40 AM CDT (10/4)
Length of Visible Light 12h 30m
Length of Day
11h 34m
Waning Gibbous, 82% of the Moon is Illuminated
Oct 4
Waning Gibbous
Oct 8
Last Quarter
Oct 15
New
Oct 21
First Quarter
Oct 29
Full

Hourly Weather History & Observations

Time (CDT) Temp. Windchill Dew Point Humidity Pressure Visibility Wind Dir Wind Speed Gust Speed Precip Events Conditions
12:15 AM 60.8 °F - 37.4 °F 42% 29.90 in 10.0 mi South 12.7 mph - N/A   Scattered Clouds
12:35 AM 60.8 °F - 37.4 °F 42% 29.90 in 10.0 mi South 11.5 mph - N/A   Scattered Clouds
12:55 AM 60.8 °F - 37.4 °F 42% 29.90 in 10.0 mi South 12.7 mph - N/A   Clear
1:15 AM 59.0 °F - 37.4 °F 45% 29.90 in 10.0 mi South 12.7 mph - N/A   Clear
1:35 AM 59.0 °F - 39.2 °F 48% 29.90 in 10.0 mi South 12.7 mph 18.4 mph N/A   Clear
1:55 AM 57.2 °F - 39.2 °F 51% 29.91 in 10.0 mi South 11.5 mph - N/A   Clear
2:15 AM 57.2 °F - 39.2 °F 51% 29.92 in 10.0 mi SSW 6.9 mph - N/A   Clear
2:35 AM 53.6 °F - 39.2 °F 58% 29.92 in 10.0 mi South 8.1 mph - N/A   Clear
2:55 AM 57.2 °F - 37.4 °F 48% 29.93 in 10.0 mi WSW 15.0 mph - N/A   Clear
3:15 AM 53.6 °F - 37.4 °F 54% 29.95 in 10.0 mi West 19.6 mph 25.3 mph N/A   Clear
3:35 AM 51.8 °F - 37.4 °F 58% 29.95 in 10.0 mi West 16.1 mph - N/A   Clear
3:55 AM 50.0 °F - 39.2 °F 66% 29.97 in 10.0 mi West 13.8 mph - N/A   Clear
4:15 AM 50.0 °F - 39.2 °F 66% 29.97 in 10.0 mi West 13.8 mph 18.4 mph N/A   Clear
4:35 AM 50.0 °F - 39.2 °F 66% 29.98 in 10.0 mi West 17.3 mph 23.0 mph N/A   Clear
4:55 AM 48.2 °F - 39.2 °F 71% 29.99 in 10.0 mi West 19.6 mph 24.2 mph N/A   Clear
5:15 AM 48.2 °F - 39.2 °F 71% 30.00 in 10.0 mi West 20.7 mph 25.3 mph N/A   Clear
5:35 AM 48.2 °F - 37.4 °F 66% 30.02 in 10.0 mi West 17.3 mph - N/A   Clear
5:55 AM 48.2 °F - 37.4 °F 66% 30.02 in 10.0 mi West 17.3 mph 26.5 mph N/A   Clear
6:15 AM 46.4 °F 38.7 °F 37.4 °F 71% 30.02 in 10.0 mi West 20.7 mph 27.6 mph N/A   Scattered Clouds
6:35 AM 46.4 °F 39.2 °F 37.4 °F 71% 30.03 in 10.0 mi West 18.4 mph 23.0 mph N/A   Scattered Clouds
6:55 AM 46.4 °F 39.0 °F 37.4 °F 71% 30.04 in 10.0 mi West 19.6 mph 26.5 mph N/A   Clear
7:15 AM 46.4 °F 39.0 °F 37.4 °F 71% 30.04 in 10.0 mi West 19.6 mph 26.5 mph N/A   Clear
7:35 AM 46.4 °F 39.2 °F 37.4 °F 71% 30.04 in 10.0 mi West 18.4 mph - N/A   Scattered Clouds
7:55 AM 46.4 °F 39.0 °F 37.4 °F 71% 30.04 in 10.0 mi West 19.6 mph 23.0 mph N/A   Scattered Clouds
8:15 AM 44.6 °F 36.9 °F 37.4 °F 76% 30.04 in 10.0 mi WNW 18.4 mph 27.6 mph N/A   Clear
8:35 AM 44.6 °F 35.7 °F 35.6 °F 71% 30.05 in 10.0 mi WNW 24.2 mph 31.1 mph N/A   Scattered Clouds
8:55 AM 44.6 °F 35.3 °F 35.6 °F 71% 30.06 in 10.0 mi WNW 26.5 mph 33.4 mph N/A   Clear
9:15 AM 44.6 °F 36.1 °F 35.6 °F 71% 30.07 in 10.0 mi WNW 21.9 mph 31.1 mph N/A Rain Light Rain
9:35 AM 46.4 °F 38.3 °F 33.8 °F 62% 30.09 in 10.0 mi WNW 23.0 mph 35.7 mph N/A   Scattered Clouds
9:55 AM 46.4 °F 38.3 °F 33.8 °F 62% 30.10 in 10.0 mi WNW 23.0 mph 31.1 mph N/A   Scattered Clouds
10:15 AM 48.2 °F - 35.6 °F 62% 30.11 in 10.0 mi West 23.0 mph 28.8 mph N/A   Scattered Clouds
10:35 AM 50.0 °F - 33.8 °F 54% 30.11 in 10.0 mi West 21.9 mph 31.1 mph N/A   Scattered Clouds
10:55 AM 48.2 °F - 33.8 °F 58% 30.12 in 10.0 mi WNW 20.7 mph 28.8 mph N/A   Scattered Clouds
11:15 AM 51.8 °F - 33.8 °F 50% 30.12 in 10.0 mi WNW 20.7 mph 29.9 mph N/A   Scattered Clouds
11:35 AM 51.8 °F - 33.8 °F 50% 30.14 in 10.0 mi WNW 20.7 mph 31.1 mph N/A   Scattered Clouds
11:55 AM 51.8 °F - 32.0 °F 47% 30.13 in 10.0 mi WNW 20.7 mph 31.1 mph N/A   Mostly Cloudy
12:15 PM 51.8 °F - 32.0 °F 47% 30.14 in 10.0 mi NW 16.1 mph 29.9 mph N/A   Scattered Clouds
12:35 PM 53.6 °F - 30.2 °F 41% 30.15 in 10.0 mi WNW 19.6 mph 27.6 mph N/A   Clear
12:55 PM 53.6 °F - 30.2 °F 41% 30.15 in 10.0 mi West 21.9 mph 31.1 mph N/A   Scattered Clouds
1:35 PM 53.6 °F - 30.2 °F 41% 30.16 in 10.0 mi WNW 21.9 mph 31.1 mph N/A   Scattered Clouds
1:55 PM 53.6 °F - 30.2 °F 41% 30.15 in 10.0 mi WNW 20.7 mph 29.9 mph N/A   Scattered Clouds
2:15 PM 55.4 °F - 30.2 °F 38% 30.16 in 10.0 mi WNW 18.4 mph 27.6 mph N/A   Scattered Clouds
2:35 PM 55.4 °F - 30.2 °F 38% 30.15 in 10.0 mi WNW 20.7 mph 28.8 mph N/A   Scattered Clouds
2:55 PM 55.4 °F - 28.4 °F 36% 30.15 in 10.0 mi NW 18.4 mph 27.6 mph N/A   Scattered Clouds
3:15 PM 55.4 °F - 28.4 °F 36% 30.15 in 10.0 mi WNW 20.7 mph 27.6 mph N/A   Scattered Clouds
3:35 PM 57.2 °F - 28.4 °F 33% 30.16 in 10.0 mi WNW 19.6 mph 27.6 mph N/A   Clear
3:55 PM 57.2 °F - 28.4 °F 33% 30.16 in 10.0 mi WNW 19.6 mph 25.3 mph N/A   Clear
4:15 PM 55.4 °F - 28.4 °F 36% 30.16 in 10.0 mi WNW 19.6 mph 23.0 mph N/A   Clear
4:35 PM 55.4 °F - 26.6 °F 33% 30.17 in 10.0 mi WNW 20.7 mph 29.9 mph N/A   Clear
5:15 PM 53.6 °F - 28.4 °F 38% 30.17 in 10.0 mi WNW 19.6 mph 25.3 mph N/A   Clear
5:55 PM 51.8 °F - 28.4 °F 41% 30.19 in 10.0 mi WNW 17.3 mph 26.5 mph N/A   Clear
6:15 PM 51.8 °F - 28.4 °F 41% 30.19 in 10.0 mi NW 15.0 mph - N/A   Clear
6:35 PM 50.0 °F - 28.4 °F 43% 30.20 in 10.0 mi WNW 11.5 mph - N/A   Clear
6:55 PM 48.2 °F - 28.4 °F 46% 30.21 in 10.0 mi WNW 12.7 mph - N/A   Clear
7:15 PM 46.4 °F 41.9 °F 28.4 °F 50% 30.21 in 10.0 mi WNW 9.2 mph - N/A   Clear
7:35 PM 44.6 °F 40.7 °F 28.4 °F 53% 30.21 in 10.0 mi WNW 6.9 mph - N/A   Clear
7:55 PM 42.8 °F 37.0 °F 28.4 °F 57% 30.21 in 10.0 mi NW 10.4 mph - N/A   Clear
8:15 PM 44.6 °F 39.2 °F 28.4 °F 53% 30.22 in 10.0 mi NW 10.4 mph - N/A   Clear
8:35 PM 44.6 °F 39.2 °F 28.4 °F 53% 30.21 in 10.0 mi NNW 10.4 mph - N/A   Clear
8:55 PM 42.8 °F 38.0 °F 26.6 °F 53% 30.22 in 10.0 mi NW 8.1 mph - N/A   Clear
9:15 PM 41.0 °F 37.1 °F 28.4 °F 61% 30.23 in 10.0 mi WNW 5.8 mph - N/A   Clear
9:35 PM 39.2 °F 35.0 °F 26.6 °F 61% 30.23 in 10.0 mi WNW 5.8 mph - N/A   Clear
9:55 PM 37.4 °F 32.8 °F 26.6 °F 65% 30.23 in 10.0 mi WNW 5.8 mph - N/A   Clear
10:15 PM 37.4 °F 32.1 °F 26.6 °F 65% 30.24 in 10.0 mi WNW 6.9 mph - N/A   Clear
10:35 PM 37.4 °F 33.8 °F 26.6 °F 65% 30.24 in 7.0 mi West 4.6 mph - N/A   Clear
10:55 PM 33.8 °F 30.8 °F 26.6 °F 75% 30.24 in 10.0 mi West 3.5 mph - N/A   Clear
11:15 PM 33.8 °F 29.6 °F 26.6 °F 75% 30.25 in 10.0 mi WSW 4.6 mph - N/A   Clear
11:35 PM 33.8 °F 30.8 °F 26.6 °F 75% 30.25 in 10.0 mi WSW 3.5 mph - N/A   Scattered Clouds
11:55 PM 37.4 °F 32.8 °F 28.4 °F 70% 30.26 in 10.0 mi WSW 5.8 mph - N/A   Overcast